GOTSKAYA Weather Reports


time (UTC)temp
C
wind
direction
speed
KPH
gust
KPH
rain 1hr
cm
rain 24hr
cm
rain mn
cm
humidity
%
barometer
mb
20260906114512 21 253 3.2 11.3 0.00 0.00 0.00 58 1014.6
20260906113014 21 187 1.6 12.9 0.00 0.00 0.00 56 1014.5
20260906111507 22 130 6.4 17.7 0.00 0.00 0.00 55 1014.7
20260906110007 23 188 3.2 22.5 0.00 0.00 0.00 54 1014.7
20260906104510 23 246 4.8 12.9 0.00 0.00 0.00 52 1014.6
20260906103011 24 204 6.4 11.3 0.00 0.00 0.00 50 1014.5
20260906101503 24 261 3.2 11.3 0.00 0.00 0.00 51 1014.4
20260906100005 26 267 8.0 16.1 0.00 0.00 0.00 50 1014.1
20260906094603 25 178 3.2 16.1 0.00 0.00 0.00 50 1014.1
20260906093059 25 146 0.0 6.4 0.00 0.00 0.00 51 1014.3
20260906091558 24 182 0.0 11.3 0.00 0.00 0.00 54 1014.5
20260906090058 25 114 4.8 12.9 0.00 0.00 0.00 51 1014.3
20260906084600 25 194 11.3 17.7 0.00 0.00 0.00 51 1014.3
20260906083053 24 116 0.0 11.3 0.00 0.00 0.00 54 1014.3
20260906081554 24 72 8.0 14.5 0.00 0.00 0.00 53 1014.3
20260906080056 25 83 9.7 16.1 0.00 0.00 0.00 52 1014.5
20260906074552 24 74 8.0 19.3 0.00 0.00 0.00 54 1014.2
20260906073051 24 97 4.8 16.1 0.00 0.00 0.00 53 1014.6
20260906071546 24 92 6.4 16.1 0.00 0.00 0.00 53 1014.4
20260906070043 24 71 6.4 17.7 0.00 0.00 0.00 52 1014.5
20260906064540 25 142 6.4 14.5 0.00 0.00 0.00 51 1014.3
20260906063044 24 123 4.8 12.9 0.00 0.00 0.00 51 1014.2
20260906061533 25 153 4.8 12.9 0.00 0.00 0.00 51 1014.3
20260906060028 24 103 3.2 9.7 0.00 0.00 0.00 52 1014.4
20260906054546 24 84 3.2 11.3 0.00 0.00 0.00 52 1014.5
20260906053021 24 105 1.6 6.4 0.00 0.00 0.00 51 1014.4
20260906051528 23 80 1.6 8.0 0.00 0.00 0.00 52 1014.4
20260906050019 23 42 1.6 8.0 0.00 0.00 0.00 52 1014.3
20260906044509 22 21 0.0 1.6 0.00 0.00 0.00 53 1014.5
20260906043005 21 21 0.0 1.6 0.00 0.00 0.00 55 1014.6
20260906041604 20 34 0.0 1.6 0.00 0.00 0.00 59 1014.7
20260906040103 19 34 0.0 1.6 0.00 0.00 0.00 60 1014.7
20260906034556 18 34 0.0 3.2 0.00 0.00 0.00 60 1014.6
20260906033054 18 19 1.6 4.8 0.00 0.00 0.00 60 1014.6
20260906031608 19 62 0.0 1.6 0.00 0.00 0.00 60 1014.6
20260906030050 19 62 0.0 1.6 0.00 0.00 0.00 61 1014.5
20260906024559 19 62 0.0 1.6 0.00 0.00 0.00 59 1014.4
20260906023057 19 62 0.0 1.6 0.00 0.00 0.00 60 1014.5
20260906021545 18 62 0.0 3.2 0.00 0.00 0.00 59 1014.7
20260906020044 19 62 0.0 0.0 0.00 0.00 0.00 59 1014.8
20260906014541 19 62 0.0 0.0 0.00 0.00 0.00 58 1014.8
20260906013039 20 62 0.0 0.0 0.00 0.00 0.00 58 1014.6
20260906011641 20 62 0.0 1.6 0.00 0.00 0.00 58 1014.6
20260906010046 20 62 0.0 1.6 0.00 0.00 0.00 57 1014.5
20260906004534 20 92 0.0 4.8 0.00 0.00 0.00 58 1014.5
20260906003032 20 114 0.0 1.6 0.00 0.00 0.00 57 1014.5
20260906001535 21 95 1.6 6.4 0.00 0.00 0.00 58 1014.6
20260906000030 20 121 1.6 9.7 0.00 0.00 0.00 58 1014.6
20260905234529 20 78 3.2 6.4 0.00 0.00 0.00 58 1014.7
20260905233027 20 86 3.2 4.8 0.00 0.00 0.00 57 1014.7
20260905231526 21 102 1.6 3.2 0.00 0.00 0.00 58 1014.9
20260905230031 21 67 1.6 6.4 0.00 0.00 0.00 58 1015.0
20260905224523 21 94 3.2 4.8 0.00 0.00 0.00 57 1015.1
20260905223022 21 83 3.2 9.7 0.00 0.00 0.00 57 1015.2
20260905221522 21 84 1.6 6.4 0.00 0.00 0.00 57 1015.2
20260905220023 21 73 3.2 11.3 0.00 0.00 0.00 57 1015.2
20260905214520 21 109 3.2 9.7 0.00 0.00 0.00 57 1015.0
20260905213019 21 92 3.2 11.3 0.00 0.00 0.00 57 1015.0
20260905211540 21 96 3.2 9.7 0.00 0.00 0.00 56 1015.2
20260905210014 21 103 3.2 9.7 0.00 0.00 0.00 57 1015.2
20260905204515 21 96 6.4 11.3 0.00 0.00 0.00 57 1015.1
20260905203013 21 45 4.8 11.3 0.00 0.00 0.00 57 1015.1
20260905201513 20 86 3.2 9.7 0.00 0.00 0.00 57 1015.1
20260905200013 20 85 4.8 8.0 0.00 0.00 0.00 58 1015.2
20260905194512 20 77 3.2 8.0 0.00 0.00 0.00 57 1015.3
20260905193011 20 69 0.0 4.8 0.00 0.00 0.00 58 1015.3
20260905191511 21 113 1.6 8.0 0.00 0.00 0.00 57 1015.4
20260905190010 21 115 1.6 6.4 0.00 0.00 0.00 57 1015.6
20260905184509 21 99 1.6 6.4 0.00 0.00 0.00 57 1015.6
20260905183008 21 65 1.6 6.4 0.00 0.00 0.00 57 1015.8
20260905181507 21 111 1.6 4.8 0.00 0.00 0.00 57 1016.1
20260905180007 21 94 1.6 4.8 0.00 0.00 0.00 57 1016.1
20260905174506 21 75 1.6 4.8 0.00 0.00 0.00 56 1016.3
20260905173008 21 65 1.6 6.4 0.00 0.00 0.00 55 1016.3
20260905171503 22 68 0.0 0.0 0.00 0.00 0.00 54 1016.4
20260905170005 22 68 0.0 0.0 0.00 0.00 0.00 53 1016.4
20260905164504 22 68 0.0 1.6 0.00 0.00 0.00 52 1016.3
20260905163002 23 68 0.0 4.8 0.00 0.00 0.00 52 1016.3
20260905161503 23 124 1.6 6.4 0.00 0.00 0.00 51 1016.2
20260905160100 23 82 3.2 11.3 0.00 0.00 0.00 51 1016.1
20260905154610 23 111 3.2 9.7 0.00 0.00 0.00 50 1016.1
20260905153059 24 90 1.6 9.7 0.00 0.00 0.00 50 1016.2
20260905151606 24 128 1.6 9.7 0.00 0.00 0.00 49 1016.1
20260905150058 25 72 4.8 9.7 0.00 0.00 0.00 48 1016.3
20260905144559 25 86 4.8 12.9 0.00 0.00 0.00 47 1015.9
20260905143057 25 59 4.8 12.9 0.00 0.00 0.00 44 1016.1
20260905141556 26 21 6.4 11.3 0.00 0.00 0.00 41 1016.0
20260905140056 26 74 4.8 14.5 0.00 0.00 0.00 43 1016.1
20260905134600 26 108 4.8 14.5 0.00 0.00 0.00 40 1016.2
20260905133057 26 181 1.6 14.5 0.00 0.00 0.00 43 1016.2
20260905131553 26 113 4.8 11.3 0.00 0.00 0.00 41 1016.3
20260905130052 26 109 3.2 14.5 0.00 0.00 0.00 40 1016.3
20260905124551 26 171 8.0 16.1 0.00 0.00 0.00 41 1016.5
20260905123051 26 72 4.8 16.1 0.00 0.00 0.00 41 1016.6
20260905121549 27 83 4.8 12.9 0.00 0.00 0.00 41 1016.6
20260905120048 27 106 4.8 16.1 0.00 0.00 0.00 40 1016.6